Orbital Elements at Epoch 2459200.5 (2020-Dec-17.0) TDB
Reference: JPL 25 (heliocentric ecliptic J2000)
Element | Value | Uncertainty (1-sigma) | Units |
e | .2383935434997402 | 2.7747e-08 | |
a | 2.344449869600592 | 7.0726e-09 | au |
q | 1.785548157629003 | 6.4403e-08 | au |
i | 4.916295649189041 | 3.6287e-06 | deg |
node | 219.7444882885386 | 3.5512e-05 | deg |
peri | 122.245889881626 | 3.6205e-05 | deg |
M | 63.65911151499499 | 6.977e-06 | deg |
tp | 2458968.644220934014 (2020-Apr-29.14422093) | 2.5078e-05 | TDB |
period | 1311.172563947804 3.59 | 5.9332e-06 1.624e-08 | d yr |
n | .2745634021780303 | 1.2424e-09 | deg/d |
Q | 2.903351581572181 | 8.7586e-09 | au |
|
| | Orbit Determination Parameters
Additional Information
|